FW9428 Weather Reports


time (UTC)temp
C
wind
direction
speed
KPH
gust
KPH
rain 1hr
cm
rain 24hr
cm
rain mn
cm
humidity
%
barometer
mb
20260504130510 14 253 3.2 3.2 0.00 0.00 0.00 61 1013.2
20260504110357 8 252 0.0 0.0 0.00 0.00 0.00 92 1013.8
20260504100315 7 249 0.0 0.0 0.00 0.00 0.00 91 1013.5
20260504081708 10 249 0.0 0.0 0.00 0.00 0.00 67 1014.8
20260504081204 10 254 0.0 0.0 0.00 0.00 0.00 69 1014.6
20260504080701 10 232 0.0 0.0 0.00 0.00 0.00 66 1014.6
20260504080157 10 239 0.0 0.0 0.00 0.00 0.00 68 1014.7
20260504070125 8 243 0.0 0.0 0.00 0.00 0.00 82 1014.8
20260504050514 7 251 0.0 0.0 0.00 0.00 0.00 84 1015.2
20260504050011 7 251 0.0 0.0 0.00 0.00 0.00 84 1015.1
20260504045508 7 255 0.0 0.0 0.00 0.00 0.00 84 1015.2
20260504045003 7 255 0.0 0.0 0.00 0.00 0.00 84 1015.0
20260504044501 7 290 0.0 0.0 0.00 0.00 0.00 84 1015.0
20260504043958 7 255 0.0 0.0 0.00 0.00 0.00 84 1015.1
20260504043454 7 253 0.0 0.0 0.00 0.00 0.00 83 1015.0
20260504042952 7 251 0.0 1.6 0.00 0.00 0.00 82 1015.2
20260504042448 7 265 1.6 1.6 0.00 0.00 0.00 82 1015.0
20260504041945 7 248 0.0 0.0 0.00 0.00 0.00 81 1015.1
20260504041441 7 244 0.0 0.0 0.00 0.00 0.00 81 1015.2
20260504040937 7 249 0.0 0.0 0.00 0.00 0.00 82 1015.2
20260504040435 7 258 0.0 0.0 0.00 0.00 0.00 81 1015.3
20260504035931 7 250 0.0 0.0 0.00 0.00 0.00 81 1015.0
20260504035429 7 257 0.0 0.0 0.00 0.00 0.00 81 1015.3
20260504034925 7 269 0.0 0.0 0.00 0.00 0.00 80 1015.1
20260504034423 7 251 0.0 0.0 0.00 0.00 0.00 80 1015.3
20260504033920 7 256 0.0 0.0 0.00 0.00 0.00 80 1015.2
20260504033418 7 255 0.0 0.0 0.00 0.00 0.00 80 1015.3
20260504032914 7 256 0.0 0.0 0.00 0.00 0.00 79 1015.3
20260504032411 7 259 0.0 1.6 0.00 0.00 0.00 80 1015.4
20260504031908 7 252 0.0 0.0 0.00 0.00 0.00 81 1015.5
20260504031405 7 256 0.0 0.0 0.00 0.00 0.00 82 1015.5
20260504030901 7 252 0.0 0.0 0.00 0.00 0.00 81 1015.4
20260504030359 7 250 0.0 0.0 0.00 0.00 0.00 80 1015.3
20260504025854 6 246 0.0 0.0 0.00 0.00 0.00 81 1015.2
20260504025352 6 245 0.0 0.0 0.00 0.00 0.00 80 1015.5
20260504024848 6 238 0.0 0.0 0.00 0.00 0.00 80 1015.5
20260504024345 6 249 0.0 0.0 0.00 0.00 0.00 80 1015.7
20260504023842 6 249 0.0 0.0 0.00 0.00 0.00 78 1015.5
20260504023339 6 249 0.0 0.0 0.00 0.00 0.00 78 1015.5
20260504022834 7 251 0.0 0.0 0.00 0.00 0.00 77 1015.3
20260504022331 7 248 0.0 0.0 0.00 0.00 0.00 76 1015.5
20260504021828 7 248 0.0 0.0 0.00 0.00 0.00 75 1015.3
20260504021325 7 248 0.0 0.0 0.00 0.00 0.00 74 1015.6
20260504020822 7 248 0.0 0.0 0.00 0.00 0.00 73 1015.3
20260504020319 7 250 0.0 0.0 0.00 0.00 0.00 72 1015.4
20260504015815 8 256 0.0 0.0 0.00 0.00 0.00 73 1015.2
20260504015311 8 250 0.0 0.0 0.00 0.00 0.00 71 1015.1
20260504014808 8 249 0.0 0.0 0.00 0.00 0.00 71 1015.2
20260504014303 8 249 0.0 0.0 0.00 0.00 0.00 69 1015.3
20260504013801 8 249 0.0 0.0 0.00 0.00 0.00 68 1015.2
20260504013259 8 252 0.0 0.0 0.00 0.00 0.00 67 1015.2
20260504012755 9 252 0.0 0.0 0.00 0.00 0.00 67 1015.5
20260504012253 9 251 0.0 0.0 0.00 0.00 0.00 64 1015.3
20260504011750 9 251 0.0 0.0 0.00 0.00 0.00 63 1015.3
20260504011246 10 251 0.0 0.0 0.00 0.00 0.00 62 1015.4
20260504010743 10 251 0.0 0.0 0.00 0.00 0.00 60 1015.3
20260504010238 10 253 0.0 0.0 0.00 0.00 0.00 60 1015.4
20260504005735 10 251 0.0 0.0 0.00 0.00 0.00 61 1015.2
20260504005232 10 252 0.0 0.0 0.00 0.00 0.00 57 1015.3
20260504004730 11 251 0.0 0.0 0.00 0.00 0.00 55 1015.3
20260504004227 11 252 0.0 0.0 0.00 0.00 0.00 54 1015.3
20260504003723 11 251 0.0 0.0 0.00 0.00 0.00 52 1015.2
20260504003220 11 250 0.0 0.0 0.00 0.00 0.00 51 1015.1
20260504002717 12 240 0.0 0.0 0.00 0.00 0.00 48 1015.0
20260504002214 12 240 0.0 0.0 0.00 0.00 0.00 47 1015.1
20260504001712 12 235 1.6 1.6 0.00 0.00 0.00 47 1015.1
20260504001209 12 240 0.0 0.0 0.00 0.00 0.00 47 1015.0
20260504000705 13 235 0.0 0.0 0.00 0.00 0.00 47 1015.0
20260504000204 13 235 0.0 0.0 0.00 0.00 0.00 46 1015.1
20260503235701 13 234 1.6 3.2 0.00 0.00 0.00 42 1015.0
20260503235157 13 229 1.6 1.6 0.00 0.00 0.00 44 1015.1
20260503234655 13 237 1.6 1.6 0.00 0.00 0.00 42 1014.9
20260503234153 13 232 1.6 1.6 0.00 0.00 0.00 44 1015.1
20260503233649 13 243 0.0 1.6 0.00 0.00 0.00 42 1015.2
20260503233145 13 234 1.6 1.6 0.00 0.00 0.00 43 1014.9
20260503232642 13 253 1.6 3.2 0.00 0.00 0.00 41 1015.1
20260503232140 14 246 3.2 3.2 0.00 0.00 0.00 41 1015.2
20260503231638 14 252 3.2 3.2 0.00 0.00 0.00 39 1015.2
20260503231134 14 248 1.6 1.6 0.00 0.00 0.00 39 1015.3
20260503230631 14 227 3.2 4.8 0.00 0.00 0.00 40 1015.3
20260503230128 15 233 1.6 1.6 0.00 0.00 0.00 39 1015.4
20260503225626 15 251 1.6 1.6 0.00 0.00 0.00 38 1015.2
20260503225125 15 267 3.2 4.8 0.00 0.00 0.00 38 1015.3
20260503224623 15 213 4.8 4.8 0.00 0.00 0.00 37 1015.3
20260503224121 15 235 1.6 1.6 0.00 0.00 0.00 39 1015.1
20260503223618 15 259 4.8 4.8 0.00 0.00 0.00 37 1015.2
20260503223114 15 261 6.4 8.0 0.00 0.00 0.00 38 1015.2
20260503222612 15 255 4.8 8.0 0.00 0.00 0.00 37 1015.3
20260503222109 15 245 3.2 3.2 0.00 0.00 0.00 37 1015.3
20260503221607 15 268 3.2 3.2 0.00 0.00 0.00 38 1015.3
20260503221105 15 230 1.6 1.6 0.00 0.00 0.00 37 1015.3
20260503220601 15 252 1.6 1.6 0.00 0.00 0.00 37 1015.3
20260503220058 15 244 3.2 3.2 0.00 0.00 0.00 36 1015.5
20260503215555 16 220 1.6 3.2 0.00 0.00 0.00 36 1015.3
20260503215052 16 269 3.2 3.2 0.00 0.00 0.00 38 1015.1
20260503214550 15 255 0.0 0.0 0.00 0.00 0.00 37 1015.4
20260503214046 16 266 4.8 4.8 0.00 0.00 0.00 36 1015.2
20260503213545 17 235 3.2 3.2 0.00 0.00 0.00 35 1015.2
20260503213041 16 261 3.2 3.2 0.00 0.00 0.00 34 1015.2
20260503212538 16 246 0.0 0.0 0.00 0.00 0.00 37 1015.5
20260503212036 15 269 3.2 3.2 0.00 0.00 0.00 34 1015.3
20260503211533 16 234 3.2 4.8 0.00 0.00 0.00 36 1015.4
20260503211028 16 219 4.8 4.8 0.00 0.00 0.00 35 1015.3
20260503210525 16 255 4.8 4.8 0.00 0.00 0.00 35 1015.5
20260503210021 16 246 3.2 4.8 0.00 0.00 0.00 33 1015.5
20260503205518 16 230 3.2 4.8 0.00 0.00 0.00 33 1015.3
20260503205014 16 268 1.6 3.2 0.00 0.00 0.00 34 1015.6
20260503204511 16 256 4.8 9.7 0.00 0.00 0.00 34 1015.5
20260503204008 16 209 6.4 8.0 0.00 0.00 0.00 34 1015.7
20260503203506 16 247 1.6 3.2 0.00 0.00 0.00 35 1015.7
20260503203002 16 232 3.2 4.8 0.00 0.00 0.00 36 1015.9
20260503202500 16 294 3.2 3.2 0.00 0.00 0.00 35 1015.8
20260503201958 16 248 4.8 4.8 0.00 0.00 0.00 34 1016.0
20260503201456 16 254 3.2 3.2 0.00 0.00 0.00 34 1015.8
20260503200953 16 250 1.6 1.6 0.00 0.00 0.00 35 1016.0
20260503200449 16 268 4.8 4.8 0.00 0.00 0.00 33 1016.1
20260503195946 16 231 8.0 12.9 0.00 0.00 0.00 35 1016.1
20260503195443 16 253 3.2 3.2 0.00 0.00 0.00 35 1016.3
20260503194939 16 217 4.8 4.8 0.00 0.00 0.00 35 1016.3
20260503194437 16 245 4.8 4.8 0.00 0.00 0.00 35 1016.3
20260503193932 16 237 6.4 8.0 0.00 0.00 0.00 36 1016.6
20260503193428 15 218 3.2 3.2 0.00 0.00 0.00 36 1016.6
20260503192923 15 315 6.4 8.0 0.00 0.00 0.00 35 1016.9
20260503192420 16 231 6.4 9.7 0.00 0.00 0.00 35 1017.0
20260503191916 16 253 4.8 8.0 0.00 0.00 0.00 39 1016.9
20260503191414 16 249 3.2 8.0 0.00 0.00 0.00 35 1016.9
20260503190910 16 266 4.8 4.8 0.00 0.00 0.00 36 1016.9
20260503190407 15 239 1.6 3.2 0.00 0.00 0.00 37 1017.1
20260503185903 16 250 4.8 4.8 0.00 0.00 0.00 39 1017.1
20260503185400 16 237 4.8 4.8 0.00 0.00 0.00 39 1017.4
20260503184859 16 212 6.4 11.3 0.00 0.00 0.00 37 1017.1
20260503184356 15 256 4.8 4.8 0.00 0.00 0.00 38 1017.0
20260503183852 16 254 3.2 3.2 0.00 0.00 0.00 38 1017.1
20260503183349 15 208 6.4 8.0 0.00 0.00 0.00 38 1017.4
20260503182847 14 230 3.2 4.8 0.00 0.00 0.00 38 1017.4
20260503182346 15 341 4.8 8.0 0.00 0.00 0.00 37 1017.4
20260503181842 14 248 1.6 1.6 0.00 0.00 0.00 40 1017.5
20260503181339 15 230 3.2 3.2 0.00 0.00 0.00 36 1017.7
20260503180836 15 247 0.0 0.0 0.00 0.00 0.00 36 1017.5
20260503180334 14 253 3.2 3.2 0.00 0.00 0.00 40 1017.9
20260503175830 13 253 1.6 1.6 0.00 0.00 0.00 41 1017.6
20260503175328 14 210 6.4 8.0 0.00 0.00 0.00 38 1017.9
20260503174823 15 220 3.2 3.2 0.00 0.00 0.00 36 1017.9
20260503174322 15 254 4.8 4.8 0.00 0.00 0.00 38 1017.9
20260503173817 15 230 4.8 4.8 0.00 0.00 0.00 40 1017.9
20260503173313 14 248 4.8 4.8 0.00 0.00 0.00 39 1018.0
20260503172810 13 252 1.6 3.2 0.00 0.00 0.00 39 1018.2
20260503172308 13 235 4.8 8.0 0.00 0.00 0.00 40 1018.1
20260503171803 13 252 1.6 1.6 0.00 0.00 0.00 42 1018.2
20260503171301 13 254 1.6 3.2 0.00 0.00 0.00 39 1018.3
20260503170758 13 247 1.6 1.6 0.00 0.00 0.00 42 1018.4
20260503170254 13 253 4.8 8.0 0.00 0.00 0.00 44 1018.6
20260503160217 11 223 4.8 4.8 0.00 0.00 0.00 47 1019.3
20260503150647 10 260 4.8 4.8 0.00 0.00 0.00 51 1019.6
20260503150143 9 204 3.2 3.2 0.00 0.00 0.00 52 1019.7